Redmond, OR

11:49 AM PST on February 25, 2018 (GMT -0800)
Roberts Field Airport

Weather History for KRDM - October, 2011

Change the Weather History Date:

Monday, October 31, 2011

  Actual Average Record
Temperature  
Mean Temperature 36 °F 42 °F  
Max Temperature 52 °F 56 °F 77 °F (1988)
Min Temperature 19 °F 29 °F -3 °F (2002)
Degree Days  
Heating Degree Days 29 22  
Month to date heating degree days 568 547  
Since 1 July heating degree days 838 945  
Cooling Degree Days 0 0  
Month to date cooling degree days 0 0  
Year to date cooling degree days 155 222  
Moisture  
Dew Point 29 °F    
Average Humidity 64    
Maximum Humidity 92    
Minimum Humidity 36    
Precipitation  
Precipitation 0.00 in 0.03 in 0.25 in (1997)
Month to date precipitation 0.31 0.64  
Year to date precipitation 5.68 6.78  
Sea Level Pressure  
Sea Level Pressure 30.28 in    
Wind  
Wind Speed 8 mph (NW)    
Max Wind Speed 15 mph    
Max Gust Speed 18 mph    
Visibility 10 miles    
Events      
T = Trace of Precipitation, MM = Missing Value Source: NWS Daily Summary

Daily Weather History Graph

Daily Weather History Graph

Search for Another Location

Airport or City:

Trip Planner

Search our weather history database for the weather conditions in past years. The results will help you decide how hot, cold, wet, or windy it might be!

Date:

Astronomy

Oct. 31, 2011 Rise Set
Actual Time 7:39 AM PDT 5:55 PM PDT
Civil Twilight 7:09 AM PDT 6:25 PM PDT
Nautical Twilight 6:35 AM PDT 7:00 PM PDT
Astronomical Twilight 6:02 AM PDT 7:33 PM PDT
Moon 12:55 PM PDT (10/31) 10:33 PM PDT (10/31)
Length of Visible Light 11h 16m
Length of Day
10h 15m
Waxing Crescent, 31% of the Moon is Illuminated
Oct 31
Waxing Crescent
Nov 2
First Quarter
Nov 10
Full
Nov 18
Last Quarter
Nov 24
New

Hourly Weather History & Observations

Time (PDT) Temp. Windchill Dew Point Humidity Pressure Visibility Wind Dir Wind Speed Gust Speed Precip Events Conditions
12:56 AM 51.1 °F - 44.1 °F 77% 30.12 in 10.0 mi WNW 9.2 mph - N/A   Mostly Cloudy
1:56 AM 50.0 °F - 39.0 °F 66% 30.14 in 10.0 mi WNW 12.7 mph 24.2 mph N/A   Mostly Cloudy
2:56 AM 48.0 °F - 36.0 °F 63% 30.14 in 10.0 mi WNW 16.1 mph 26.5 mph N/A   Clear
3:56 AM 48.2 °F - 35.6 °F 62% 30.18 in 10.0 mi WNW 17.3 mph 29.9 mph N/A   Clear
4:56 AM 46.4 °F 40.7 °F 35.6 °F 66% 30.19 in 10.0 mi NNW 12.7 mph - N/A   Clear
5:56 AM 45.0 °F 37.9 °F 35.1 °F 68% 30.20 in 10.0 mi NNW 16.1 mph 26.5 mph N/A   Clear
6:56 AM 39.0 °F 29.9 °F 33.1 °F 79% 30.25 in 10.0 mi NNE 17.3 mph 20.7 mph N/A   Clear
7:56 AM 37.0 °F 31.6 °F 30.9 °F 79% 30.29 in 10.0 mi North 6.9 mph - N/A   Clear
8:56 AM 39.9 °F - 30.0 °F 68% 30.32 in 10.0 mi Calm Calm - N/A   Partly Cloudy
9:56 AM 45.0 °F 41.2 °F 28.9 °F 53% 30.33 in 10.0 mi WNW 6.9 mph - N/A   Clear
10:56 AM 46.0 °F 43.1 °F 28.0 °F 50% 30.34 in 10.0 mi NW 5.8 mph - N/A   Clear
11:56 AM 46.4 °F 45.2 °F 26.6 °F 46% 30.32 in 10.0 mi NW 3.5 mph - N/A   Partly Cloudy
12:56 PM 50.0 °F - 26.1 °F 39% 30.30 in 10.0 mi West 11.5 mph - N/A   Partly Cloudy
1:56 PM 48.9 °F - 24.1 °F 38% 30.28 in 10.0 mi North 8.1 mph - N/A   Partly Cloudy
2:56 PM 50.0 °F - 24.1 °F 36% 30.27 in 10.0 mi North 9.2 mph - N/A   Clear
3:56 PM 48.0 °F - 25.0 °F 41% 30.28 in 10.0 mi North 10.4 mph - N/A   Clear
4:56 PM 46.9 °F - 27.0 °F 46% 30.28 in 10.0 mi North 6.9 mph - N/A   Mostly Cloudy
5:56 PM 44.1 °F 40.1 °F 27.0 °F 51% 30.30 in 10.0 mi NNW 6.9 mph - N/A   Mostly Cloudy
6:56 PM 39.0 °F 35.7 °F 28.0 °F 65% 30.33 in 10.0 mi North 4.6 mph - N/A   Clear
7:56 PM 37.0 °F - 27.0 °F 67% 30.35 in 10.0 mi Calm Calm - N/A   Clear
8:56 PM 33.1 °F 28.7 °F 25.0 °F 72% 30.37 in 10.0 mi SW 4.6 mph - N/A   Clear
9:56 PM 25.0 °F - 21.0 °F 85% 30.40 in 10.0 mi Calm Calm - N/A   Clear
10:56 PM 21.9 °F - 18.0 °F 85% 30.42 in 10.0 mi Calm Calm - N/A   Clear
11:56 PM 21.0 °F 16.2 °F 19.0 °F 92% 30.41 in 10.0 mi South 3.5 mph - N/A   Clear